Wisconsin Rapids, WI

11:12 AM CDT on March 26, 2017 (GMT -0500)
Alexander Field South Wood County

Weather History for KISW - April, 2014

Change the Weather History Date:

Friday, April 11, 2014

  Actual Average Record
Temperature  
Mean Temperature 44 °F -  
Max Temperature 61 °F 52 °F 85 °F (1977)
Min Temperature 28 °F 31 °F 16 °F (1952)
Degree Days  
Heating Degree Days 21    
Moisture  
Dew Point 30 °F    
Average Humidity 57    
Maximum Humidity 76    
Minimum Humidity 35    
Precipitation  
Precipitation 0.00 in - - ()
Sea Level Pressure  
Sea Level Pressure 29.99 in    
Wind  
Wind Speed 5 mph (West)    
Max Wind Speed 14 mph    
Max Gust Speed 17 mph    
Visibility 10 miles    
Events Rain    
Averages and records for this station are not official NWS values.
T = Trace of Precipitation, MM = Missing Value Source: NWS Daily Summary

Daily Weather History Graph

Daily Weather History Graph

Search for Another Location

Airport or City:

Trip Planner

Search our weather history database for the weather conditions in past years. The results will help you decide how hot, cold, wet, or windy it might be!

Date:

Astronomy

Apr. 11, 2014 Rise Set
Actual Time 6:22 AM CDT 7:39 PM CDT
Civil Twilight 5:52 AM CDT 8:09 PM CDT
Nautical Twilight 5:16 AM CDT 8:45 PM CDT
Astronomical Twilight 4:38 AM CDT 9:23 PM CDT
Moon 4:12 PM CDT (4/11) 4:25 AM CDT (4/11)
Length of Visible Light 14h 16m
Length of Day
13h 16m
Waxing Gibbous, 87% of the Moon is Illuminated
Apr 11
Waxing Gibbous
Apr 15
Full
Apr 22
Last Quarter
Apr 29
New
May 6
First Quarter

Hourly Weather History & Observations

Time (CDT) Temp. Windchill Dew Point Humidity Pressure Visibility Wind Dir Wind Speed Gust Speed Precip Events Conditions
12:54 AM 32.0 °F 28.7 °F 23.0 °F 69% 29.96 in 10.0 mi SSW 3.5 mph - N/A   Clear
1:54 AM 30.9 °F 25.2 °F 21.9 °F 69% 29.96 in 10.0 mi SW 5.8 mph - N/A   Clear
2:54 AM 34.0 °F 31.0 °F 23.0 °F 64% 29.96 in 10.0 mi WSW 3.5 mph - N/A   Clear
3:54 AM 33.1 °F - 21.0 °F 61% 29.97 in 10.0 mi Calm Calm - N/A   Clear
4:54 AM 30.9 °F - 21.0 °F 67% 29.98 in 10.0 mi Calm Calm - N/A   Clear
5:54 AM 28.9 °F - 21.9 °F 75% 29.99 in 10.0 mi Calm Calm - N/A   Clear
6:54 AM 30.0 °F - 23.0 °F 75% 30.00 in 10.0 mi Calm Calm - N/A   Clear
7:54 AM 36.0 °F - 28.9 °F 76% 30.01 in 10.0 mi Calm Calm - N/A   Clear
8:54 AM 46.9 °F - 28.0 °F 48% 30.02 in 10.0 mi WSW 6.9 mph - N/A   Partly Cloudy
9:54 AM 52.0 °F - 26.1 °F 37% 30.02 in 10.0 mi WSW 8.1 mph - N/A   Overcast
10:54 AM 54.0 °F - 27.0 °F 35% 30.03 in 10.0 mi WSW 13.8 mph 17.3 mph N/A   Overcast
11:54 AM 48.9 °F - 37.9 °F 66% 30.04 in 10.0 mi SSW 13.8 mph - 0.00 in Rain Light Rain
12:54 PM 53.1 °F - 36.0 °F 52% 30.00 in 10.0 mi WSW 4.6 mph - 0.00 in   Overcast
1:54 PM 55.0 °F - 35.1 °F 47% 29.99 in 10.0 mi Variable 3.5 mph - N/A   Overcast
2:54 PM 57.0 °F - 36.0 °F 45% 29.98 in 10.0 mi NE 4.6 mph - 0.00 in   Overcast
3:54 PM 60.1 °F - 37.0 °F 42% 29.96 in 10.0 mi NNE 11.5 mph - N/A   Scattered Clouds
4:54 PM 60.1 °F - 37.0 °F 42% 29.96 in 10.0 mi North 12.7 mph - N/A   Clear
5:54 PM 57.9 °F - 37.0 °F 46% 29.97 in 10.0 mi NNW 11.5 mph - N/A   Clear
6:54 PM 55.0 °F - 34.0 °F 45% 29.98 in 10.0 mi NNE 9.2 mph - N/A   Clear
7:54 PM 52.0 °F - 33.1 °F 49% 29.98 in 10.0 mi NE 5.8 mph - N/A   Clear
8:54 PM 44.1 °F 42.5 °F 33.1 °F 65% 30.01 in 10.0 mi East 3.5 mph - N/A   Clear
9:54 PM 44.1 °F 42.5 °F 33.1 °F 65% 30.02 in 10.0 mi East 3.5 mph - N/A   Clear
10:54 PM 42.1 °F - 33.1 °F 70% 30.02 in 10.0 mi Calm Calm - N/A   Clear
11:54 PM 45.0 °F 41.8 °F 33.1 °F 63% 30.02 in 10.0 mi SE 5.8 mph - N/A   Clear